N116B KLUK-KHOU

Flight info

Callsign N116B
Flight time N/A
Altitude 43000
Route CHCLL IIU LAJUG HLI MLU SWEUP WAPPL7
Aircraft PC24/M-SBDGIRWY/LB2

Departure

Time 2026-04-25 17:06
Airport Cincinnati Municipal Airport Lunken Field (KLUK)

Arrival

Time N/A
Airport William P. Hobby Airport (KHOU)
Time Latitude Longitude Altitude Speed Heading
2026-04-25 16:40 39.10515 -84.42619 482 ft 0 kts 339°
2026-04-25 16:52 39.10528 -84.42627 480 ft 4 kts 327°
2026-04-25 16:52 39.10524 -84.42649 483 ft 4 kts 197°
2026-04-25 16:53 39.10447 -84.42608 484 ft 6 kts 111°
2026-04-25 16:53 39.10469 -84.42550 481 ft 11 kts 62°
2026-04-25 16:53 39.10521 -84.42420 483 ft 21 kts 61°
2026-04-25 16:54 39.10587 -84.42263 480 ft 19 kts 61°
2026-04-25 16:54 39.10645 -84.42121 480 ft 15 kts 63°
2026-04-25 16:54 39.10683 -84.42027 481 ft 11 kts 62°
2026-04-25 16:54 39.10719 -84.41942 482 ft 11 kts 62°
2026-04-25 16:55 39.10753 -84.41862 478 ft 10 kts 62°
2026-04-25 16:55 39.10782 -84.41793 475 ft 8 kts 61°
2026-04-25 16:55 39.10809 -84.41728 481 ft 9 kts 62°
2026-04-25 16:55 39.10846 -84.41636 478 ft 14 kts 65°
2026-04-25 16:56 39.10895 -84.41507 478 ft 17 kts 63°
2026-04-25 16:56 39.10950 -84.41382 478 ft 15 kts 60°
2026-04-25 16:56 39.10921 -84.41281 473 ft 14 kts 154°
2026-04-25 16:56 39.10853 -84.41235 476 ft 0 kts 149°
2026-04-25 17:03 39.10829 -84.41218 478 ft 12 kts 152°
2026-04-25 17:03 39.10748 -84.41224 480 ft 25 kts 199°
2026-04-25 17:04 39.10305 -84.41442 485 ft 110 kts 200°
2026-04-25 17:04 39.09403 -84.41888 753 ft 154 kts 201°
2026-04-25 17:04 39.08964 -84.42113 1039 ft 167 kts 202°
2026-04-25 17:06 39.08189 -84.42520 1293 ft 195 kts 204°
2026-04-25 17:06 39.07074 -84.43552 2243 ft 197 kts 240°
2026-04-25 17:06 39.06383 -84.45009 3639 ft 193 kts 238°
2026-04-25 17:06 39.05465 -84.46339 4604 ft 211 kts 222°
2026-04-25 17:07 39.04236 -84.47452 5392 ft 224 kts 215°
2026-04-25 17:07 39.02926 -84.48587 6362 ft 228 kts 217°
2026-04-25 17:07 39.01613 -84.49774 7275 ft 233 kts 217°
2026-04-25 17:07 39.00276 -84.50985 8185 ft 238 kts 217°
2026-04-25 17:08 38.98912 -84.52219 9116 ft 242 kts 217°
2026-04-25 17:08 38.97521 -84.53476 10016 ft 247 kts 217°
2026-04-25 17:08 38.96111 -84.54753 10885 ft 249 kts 217°
2026-04-25 17:08 38.94689 -84.56036 11758 ft 251 kts 217°
2026-04-25 17:09 38.93258 -84.57330 12652 ft 253 kts 217°
2026-04-25 17:09 38.91813 -84.58635 13537 ft 255 kts 217°
2026-04-25 17:09 38.90356 -84.59951 14345 ft 257 kts 217°
2026-04-25 17:09 38.88891 -84.61272 15159 ft 258 kts 217°
2026-04-25 17:10 38.87419 -84.62599 15974 ft 259 kts 218°
2026-04-25 17:10 38.85940 -84.63932 16817 ft 260 kts 218°
2026-04-25 17:10 38.84459 -84.65265 17667 ft 260 kts 218°
2026-04-25 17:10 38.82973 -84.66604 18466 ft 261 kts 218°
2026-04-25 17:11 38.81486 -84.67941 19211 ft 262 kts 217°
2026-04-25 17:11 38.79997 -84.69280 19989 ft 261 kts 217°
2026-04-25 17:11 38.78537 -84.70593 20824 ft 259 kts 218°
2026-04-25 17:11 38.77069 -84.71912 21625 ft 257 kts 219°
2026-04-25 17:12 38.75606 -84.73225 22431 ft 256 kts 219°
2026-04-25 17:12 38.74145 -84.74536 23205 ft 256 kts 219°
2026-04-25 17:12 38.72682 -84.75849 23892 ft 257 kts 220°
2026-04-25 17:12 38.71214 -84.77164 24482 ft 259 kts 219°
2026-04-25 17:13 38.69735 -84.78492 25072 ft 260 kts 219°
2026-04-25 17:13 38.69233 -84.78942 25285 ft 261 kts 219°
2026-04-25 17:13 38.66749 -84.81165 26273 ft 264 kts 219°
2026-04-25 17:13 38.65241 -84.82513 26863 ft 265 kts 219°
2026-04-25 17:14 38.63723 -84.83871 27448 ft 267 kts 219°
2026-04-25 17:14 38.62196 -84.85237 28021 ft 269 kts 219°
2026-04-25 17:14 38.60655 -84.86613 28597 ft 271 kts 219°
2026-04-25 17:14 38.59105 -84.87997 29157 ft 273 kts 219°
2026-04-25 17:15 38.57542 -84.89392 29697 ft 275 kts 218°
2026-04-25 17:15 38.55967 -84.90797 30201 ft 277 kts 218°
2026-04-25 17:15 38.54385 -84.92207 30667 ft 278 kts 218°
2026-04-25 17:15 38.52821 -84.93599 31153 ft 277 kts 218°
2026-04-25 17:16 38.51238 -84.95009 31602 ft 278 kts 218°
2026-04-25 17:16 38.49648 -84.96424 32058 ft 279 kts 217°
2026-04-25 17:16 38.48131 -84.97958 32496 ft 278 kts 224°
2026-04-25 17:16 38.46832 -84.99787 32917 ft 279 kts 231°
2026-04-25 17:17 38.45632 -85.01735 33320 ft 280 kts 230°
2026-04-25 17:17 38.44410 -85.03675 33730 ft 281 kts 230°
2026-04-25 17:17 38.43185 -85.05627 34109 ft 283 kts 231°
2026-04-25 17:17 38.41954 -85.07601 34374 ft 286 kts 231°
2026-04-25 17:18 38.40712 -85.09589 34665 ft 288 kts 231°
2026-04-25 17:18 38.39456 -85.11593 34969 ft 290 kts 231°
2026-04-25 17:18 38.38199 -85.13600 35319 ft 290 kts 231°
2026-04-25 17:18 38.36939 -85.15609 35655 ft 290 kts 232°
2026-04-25 17:19 38.35683 -85.17612 35980 ft 290 kts 232°
2026-04-25 17:19 38.34421 -85.19622 36317 ft 290 kts 232°
2026-04-25 17:19 38.33162 -85.21627 36651 ft 290 kts 232°
2026-04-25 17:19 38.31901 -85.23634 36977 ft 290 kts 232°
2026-04-25 17:20 38.30642 -85.25636 37304 ft 290 kts 232°
2026-04-25 17:20 38.29380 -85.27642 37632 ft 290 kts 232°
2026-04-25 17:20 38.28119 -85.29644 37952 ft 290 kts 233°
2026-04-25 17:20 38.26859 -85.31644 38270 ft 290 kts 233°
2026-04-25 17:21 38.25597 -85.33647 38568 ft 290 kts 233°
2026-04-25 17:21 38.24332 -85.35651 38815 ft 291 kts 233°
2026-04-25 17:21 38.23082 -85.37633 39032 ft 292 kts 233°
2026-04-25 17:21 38.21809 -85.39648 39251 ft 293 kts 233°
2026-04-25 17:22 38.20533 -85.41666 39466 ft 294 kts 233°
2026-04-25 17:22 38.20099 -85.42353 39543 ft 294 kts 233°
2026-04-25 17:22 38.17951 -85.45750 39821 ft 299 kts 233°
2026-04-25 17:22 38.16645 -85.47812 40053 ft 300 kts 233°
2026-04-25 17:23 38.15335 -85.49878 40265 ft 301 kts 233°
2026-04-25 17:23 38.14021 -85.51953 40480 ft 302 kts 233°
2026-04-25 17:23 38.12703 -85.54031 40704 ft 302 kts 233°
2026-04-25 17:23 38.11382 -85.56112 40918 ft 303 kts 233°
2026-04-25 17:24 38.10010 -85.58152 41119 ft 306 kts 227°
2026-04-25 17:24 38.08451 -85.59995 41334 ft 307 kts 226°
2026-04-25 17:24 38.06902 -85.61860 41546 ft 307 kts 227°
2026-04-25 17:24 38.05350 -85.63736 41761 ft 308 kts 227°
2026-04-25 17:25 38.03788 -85.65604 41961 ft 309 kts 226°
2026-04-25 17:25 38.02221 -85.67474 42172 ft 310 kts 226°
2026-04-25 17:25 38.00650 -85.69350 42390 ft 311 kts 226°
2026-04-25 17:25 37.99074 -85.71234 42606 ft 311 kts 226°
2026-04-25 17:26 37.97495 -85.73119 42815 ft 312 kts 227°
2026-04-25 17:26 37.95913 -85.75006 42981 ft 314 kts 226°
2026-04-25 17:26 37.92665 -85.78881 42980 ft 327 kts 226°
2026-04-25 17:27 37.89286 -85.82903 42978 ft 340 kts 226°
2026-04-25 17:27 37.86958 -85.85671 42979 ft 346 kts 226°
2026-04-25 17:28 37.82200 -85.91321 42979 ft 359 kts 226°
2026-04-25 17:28 37.78518 -85.95685 42993 ft 367 kts 226°
2026-04-25 17:29 37.74761 -86.00133 42996 ft 373 kts 226°
2026-04-25 17:29 37.70934 -86.04657 42993 ft 380 kts 226°
2026-04-25 17:30 37.67075 -86.09210 42991 ft 385 kts 226°
2026-04-25 17:30 37.63142 -86.13845 42967 ft 387 kts 226°
2026-04-25 17:31 37.59204 -86.18480 42977 ft 387 kts 226°
2026-04-25 17:31 37.55262 -86.23111 42959 ft 387 kts 226°
2026-04-25 17:32 37.51984 -86.26957 42946 ft 388 kts 226°
2026-04-25 17:32 37.48038 -86.31580 42947 ft 388 kts 226°
2026-04-25 17:33 37.44088 -86.36202 42947 ft 388 kts 226°
2026-04-25 17:33 37.40137 -86.40816 42944 ft 387 kts 226°
2026-04-25 17:34 37.36195 -86.45415 42937 ft 386 kts 226°
2026-04-25 17:34 37.32263 -86.49994 42939 ft 385 kts 226°
2026-04-25 17:35 37.28335 -86.54562 42936 ft 384 kts 226°
2026-04-25 17:35 37.24410 -86.59119 42947 ft 386 kts 226°
2026-04-25 17:36 37.20477 -86.63681 42945 ft 389 kts 226°
2026-04-25 17:36 37.16489 -86.68295 42944 ft 389 kts 226°
2026-04-25 17:37 37.12516 -86.72889 42941 ft 388 kts 226°
2026-04-25 17:37 37.08557 -86.77458 42936 ft 386 kts 226°
2026-04-25 17:38 37.05274 -86.81243 42933 ft 385 kts 226°
2026-04-25 17:38 37.00668 -86.86545 42930 ft 385 kts 226°
2026-04-25 17:39 36.96709 -86.91094 42932 ft 388 kts 226°
2026-04-25 17:39 36.92725 -86.95664 42936 ft 390 kts 226°
2026-04-25 17:40 36.88761 -87.00206 42933 ft 388 kts 226°
2026-04-25 17:40 36.84794 -87.04745 42930 ft 386 kts 226°
2026-04-25 17:41 36.80838 -87.09265 42924 ft 385 kts 226°
2026-04-25 17:41 36.76887 -87.13772 42927 ft 386 kts 226°
2026-04-25 17:42 36.72905 -87.18308 42934 ft 389 kts 226°
2026-04-25 17:42 36.68898 -87.22865 42950 ft 391 kts 226°
2026-04-25 17:43 36.64890 -87.27415 42959 ft 389 kts 226°
2026-04-25 17:43 36.60905 -87.31954 42955 ft 386 kts 228°
2026-04-25 17:44 36.57098 -87.36630 42958 ft 384 kts 229°
2026-04-25 17:44 36.53314 -87.41245 42937 ft 384 kts 229°
2026-04-25 17:45 36.50113 -87.45156 42940 ft 386 kts 229°
2026-04-25 17:45 36.45650 -87.50595 42949 ft 387 kts 229°
2026-04-25 17:46 36.41794 -87.55286 42949 ft 389 kts 229°
2026-04-25 17:46 36.37931 -87.59980 42952 ft 388 kts 229°
2026-04-25 17:47 36.34077 -87.64656 42948 ft 387 kts 229°
2026-04-25 17:47 36.30223 -87.69325 42946 ft 387 kts 229°
2026-04-25 17:48 36.24457 -87.76298 42952 ft 385 kts 229°
2026-04-25 17:49 36.20623 -87.80926 42939 ft 384 kts 229°
2026-04-25 17:49 36.16782 -87.85557 42942 ft 387 kts 229°
2026-04-25 17:50 36.12942 -87.90178 42950 ft 389 kts 229°
2026-04-25 17:50 36.09058 -87.94846 42949 ft 390 kts 229°
2026-04-25 17:51 36.05181 -87.99498 42944 ft 387 kts 229°
2026-04-25 17:51 36.01323 -88.04122 42939 ft 385 kts 229°
2026-04-25 17:52 35.97483 -88.08717 42941 ft 384 kts 229°
2026-04-25 17:52 35.93642 -88.13308 42941 ft 385 kts 229°
2026-04-25 17:53 35.89779 -88.17918 42947 ft 388 kts 229°
2026-04-25 17:53 35.85890 -88.22552 42947 ft 389 kts 229°
2026-04-25 17:54 35.82001 -88.27178 42954 ft 388 kts 229°
2026-04-25 17:54 35.78148 -88.31756 42951 ft 386 kts 229°
2026-04-25 17:55 35.74285 -88.36339 42928 ft 385 kts 229°
2026-04-25 17:55 35.70421 -88.40919 42943 ft 387 kts 229°
2026-04-25 17:56 35.66524 -88.45528 42952 ft 389 kts 229°
2026-04-25 17:56 35.62619 -88.50141 42953 ft 389 kts 229°
2026-04-25 17:57 35.58727 -88.54733 42948 ft 388 kts 229°
2026-04-25 17:57 35.54837 -88.59316 42947 ft 387 kts 229°
2026-04-25 17:58 35.50957 -88.63879 42948 ft 386 kts 229°
2026-04-25 17:58 35.47109 -88.68401 42949 ft 386 kts 229°
2026-04-25 17:59 35.43218 -88.72966 42951 ft 389 kts 229°
2026-04-25 17:59 35.39291 -88.77566 42956 ft 391 kts 229°
2026-04-25 18:00 35.35374 -88.82146 42956 ft 388 kts 229°
2026-04-25 18:00 35.31474 -88.86702 42947 ft 386 kts 229°
2026-04-25 18:01 35.27593 -88.91230 42941 ft 385 kts 229°
2026-04-25 18:01 35.23710 -88.95755 42924 ft 387 kts 229°
2026-04-25 18:02 35.19806 -89.00295 42942 ft 389 kts 229°
2026-04-25 18:02 35.15878 -89.04858 42947 ft 390 kts 229°
2026-04-25 18:03 35.11967 -89.09395 42943 ft 389 kts 229°
2026-04-25 18:03 35.08049 -89.13932 42938 ft 387 kts 229°
2026-04-25 18:04 35.04149 -89.18445 42934 ft 385 kts 229°
2026-04-25 18:04 35.00264 -89.22932 42929 ft 385 kts 229°
2026-04-25 18:05 34.96361 -89.27437 42932 ft 388 kts 229°
2026-04-25 18:05 34.92429 -89.31965 42935 ft 390 kts 229°
2026-04-25 18:06 34.88480 -89.36507 42935 ft 389 kts 229°
2026-04-25 18:06 34.84549 -89.41023 42930 ft 387 kts 229°
2026-04-25 18:07 34.80663 -89.45482 42925 ft 386 kts 229°
2026-04-25 18:07 34.76761 -89.49951 42924 ft 385 kts 229°
2026-04-25 18:08 34.72905 -89.54472 42898 ft 386 kts 230°
2026-04-25 18:08 34.69026 -89.59004 42933 ft 388 kts 229°
2026-04-25 18:09 34.65121 -89.63558 42936 ft 390 kts 229°
2026-04-25 18:09 34.61213 -89.68111 42935 ft 388 kts 229°
2026-04-25 18:10 34.57325 -89.72635 42931 ft 386 kts 229°
2026-04-25 18:10 34.53457 -89.77130 42926 ft 384 kts 229°
2026-04-25 18:11 34.49590 -89.81618 42924 ft 386 kts 229°
2026-04-25 18:11 34.45722 -89.86100 42923 ft 388 kts 229°
2026-04-25 18:12 34.41817 -89.90619 42954 ft 389 kts 229°
2026-04-25 18:12 34.37908 -89.95136 42953 ft 388 kts 229°
2026-04-25 18:13 34.33999 -89.99648 42951 ft 388 kts 229°
2026-04-25 18:13 34.30094 -90.04148 42920 ft 388 kts 229°
2026-04-25 18:14 34.24236 -90.10889 42928 ft 388 kts 229°
2026-04-25 18:14 34.20329 -90.15376 42941 ft 386 kts 230°
2026-04-25 18:15 34.16438 -90.19840 42938 ft 385 kts 230°
2026-04-25 18:15 34.12584 -90.24255 42936 ft 384 kts 230°
2026-04-25 18:16 34.08717 -90.28679 42944 ft 383 kts 230°
2026-04-25 18:17 34.02893 -90.35332 42944 ft 386 kts 229°
2026-04-25 18:17 33.98980 -90.39794 42948 ft 387 kts 230°
2026-04-25 18:18 33.95073 -90.44241 42915 ft 386 kts 230°
2026-04-25 18:18 33.91187 -90.48662 42934 ft 383 kts 230°
2026-04-25 18:19 33.87315 -90.53059 42938 ft 382 kts 230°
2026-04-25 18:19 33.83437 -90.57460 42941 ft 384 kts 230°
2026-04-25 18:20 33.79538 -90.61876 42949 ft 386 kts 230°
2026-04-25 18:20 33.75649 -90.66276 42953 ft 387 kts 230°
2026-04-25 18:21 33.71720 -90.70715 42954 ft 387 kts 230°
2026-04-25 18:21 33.67806 -90.75129 42919 ft 384 kts 230°
2026-04-25 18:22 33.63922 -90.79507 42939 ft 383 kts 230°
2026-04-25 18:22 33.60026 -90.83893 42942 ft 385 kts 230°
2026-04-25 18:23 33.56114 -90.88290 42946 ft 386 kts 230°
2026-04-25 18:23 33.52187 -90.92697 42954 ft 387 kts 230°
2026-04-25 18:24 33.48254 -90.97106 42955 ft 388 kts 230°
2026-04-25 18:24 33.44307 -91.01524 42954 ft 388 kts 230°
2026-04-25 18:25 33.40395 -91.05897 42953 ft 386 kts 230°
2026-04-25 18:25 33.36478 -91.10272 42949 ft 384 kts 230°
2026-04-25 18:26 33.32576 -91.14623 42942 ft 383 kts 230°
2026-04-25 18:26 33.28686 -91.18958 42948 ft 383 kts 230°
2026-04-25 18:27 33.24777 -91.23305 42960 ft 385 kts 230°
2026-04-25 18:27 33.20851 -91.27667 42964 ft 386 kts 230°
2026-04-25 18:28 33.16908 -91.32042 42964 ft 388 kts 230°
2026-04-25 18:28 33.12954 -91.36422 42953 ft 388 kts 230°
2026-04-25 18:29 33.07021 -91.42985 42957 ft 386 kts 230°
2026-04-25 18:30 32.99206 -91.51612 42959 ft 382 kts 230°
2026-04-25 18:30 32.95297 -91.55921 42964 ft 384 kts 230°
2026-04-25 18:31 32.91354 -91.60258 42973 ft 387 kts 230°
2026-04-25 18:31 32.87390 -91.64613 42950 ft 387 kts 230°
2026-04-25 18:32 32.83443 -91.68945 42957 ft 385 kts 230°
2026-04-25 18:32 32.79513 -91.73253 42957 ft 383 kts 230°
2026-04-25 18:33 32.75625 -91.77509 42954 ft 382 kts 230°
2026-04-25 18:33 32.71698 -91.81805 42959 ft 385 kts 230°
2026-04-25 18:34 32.67742 -91.86124 42959 ft 387 kts 230°
2026-04-25 18:34 32.63769 -91.90457 42961 ft 388 kts 230°
2026-04-25 18:35 32.60473 -91.94047 42945 ft 386 kts 230°
2026-04-25 18:35 32.56533 -91.98334 42947 ft 383 kts 230°
2026-04-25 18:36 32.52602 -92.02608 42947 ft 384 kts 230°
2026-04-25 18:36 32.48807 -92.07039 42952 ft 384 kts 232°
2026-04-25 18:37 32.45019 -92.11523 42961 ft 386 kts 232°
2026-04-25 18:37 32.41225 -92.16026 42961 ft 385 kts 232°
2026-04-25 18:38 32.37489 -92.20452 42953 ft 381 kts 232°
2026-04-25 18:38 32.33739 -92.24893 42950 ft 383 kts 232°
2026-04-25 18:39 32.29965 -92.29352 42950 ft 384 kts 232°
2026-04-25 18:39 32.26170 -92.33833 42954 ft 387 kts 232°
2026-04-25 18:40 32.22356 -92.38328 42958 ft 387 kts 232°
2026-04-25 18:40 32.18552 -92.42806 42955 ft 385 kts 232°
2026-04-25 18:41 32.14768 -92.47257 42949 ft 383 kts 232°
2026-04-25 18:41 32.10996 -92.51688 42946 ft 382 kts 232°
2026-04-25 18:42 32.07865 -92.55363 42945 ft 383 kts 232°
2026-04-25 18:42 32.03452 -92.60534 42951 ft 386 kts 232°
2026-04-25 18:43 31.99620 -92.65018 42953 ft 389 kts 232°
2026-04-25 18:43 31.95633 -92.69351 42949 ft 392 kts 227°
2026-04-25 18:44 31.91451 -92.73413 42946 ft 388 kts 228°
2026-04-25 18:44 31.87290 -92.77460 42938 ft 389 kts 227°
2026-04-25 18:45 31.83101 -92.81519 42950 ft 391 kts 227°
2026-04-25 18:45 31.78889 -92.85601 42961 ft 393 kts 227°
2026-04-25 18:46 31.74658 -92.89692 42957 ft 394 kts 227°
2026-04-25 18:46 31.70454 -92.93755 42956 ft 393 kts 227°
2026-04-25 18:47 31.66248 -92.97814 42953 ft 390 kts 228°
2026-04-25 18:47 31.62067 -93.01846 42929 ft 389 kts 228°
2026-04-25 18:48 31.57869 -93.05889 42922 ft 392 kts 228°
2026-04-25 18:48 31.53644 -93.09951 42935 ft 394 kts 228°
2026-04-25 18:49 31.49402 -93.14025 42941 ft 393 kts 228°
2026-04-25 18:49 31.45184 -93.18070 42920 ft 391 kts 228°
2026-04-25 18:50 31.40976 -93.22106 42914 ft 391 kts 228°
2026-04-25 18:50 31.36759 -93.26139 42910 ft 391 kts 228°
2026-04-25 18:51 31.33255 -93.29491 42912 ft 392 kts 228°
2026-04-25 18:51 31.28351 -93.34173 42913 ft 392 kts 228°
2026-04-25 18:52 31.24124 -93.38204 42913 ft 392 kts 228°
2026-04-25 18:52 31.19895 -93.42231 42914 ft 392 kts 228°
2026-04-25 18:53 31.15671 -93.46250 42917 ft 392 kts 228°
2026-04-25 18:53 31.11439 -93.50273 42914 ft 392 kts 228°
2026-04-25 18:54 31.05083 -93.56302 42906 ft 393 kts 228°
2026-04-25 18:55 31.00843 -93.60319 42902 ft 393 kts 228°
2026-04-25 18:55 30.96600 -93.64335 42902 ft 393 kts 228°
2026-04-25 18:56 30.92355 -93.68346 42907 ft 393 kts 228°
2026-04-25 18:56 30.88112 -93.72353 42898 ft 392 kts 228°
2026-04-25 18:57 30.83898 -93.76327 42898 ft 392 kts 228°
2026-04-25 18:57 30.79654 -93.80323 42897 ft 392 kts 228°
2026-04-25 18:58 30.75408 -93.84309 42895 ft 392 kts 228°
2026-04-25 18:58 30.69027 -93.90270 42902 ft 392 kts 228°
2026-04-25 18:59 30.60514 -93.98214 42893 ft 392 kts 228°
2026-04-25 19:00 30.54178 -94.04164 42889 ft 393 kts 228°
2026-04-25 19:01 30.47803 -94.10127 42892 ft 393 kts 228°
2026-04-25 19:01 30.43550 -94.14101 42890 ft 393 kts 228°
2026-04-25 19:02 30.37181 -94.20044 42884 ft 391 kts 229°
2026-04-25 19:03 30.32288 -94.24600 42872 ft 385 kts 229°
2026-04-25 19:03 30.26690 -94.29815 42883 ft 388 kts 229°
2026-04-25 19:04 30.23140 -94.34216 42909 ft 367 kts 249°
2026-04-25 19:04 30.22161 -94.36889 42915 ft 358 kts 259°
2026-04-25 19:05 30.19236 -94.47853 42901 ft 354 kts 259°
2026-04-25 19:06 30.17784 -94.53273 42889 ft 353 kts 259°
2026-04-25 19:06 30.15596 -94.61405 42882 ft 351 kts 259°
2026-04-25 19:07 30.13426 -94.69489 42881 ft 352 kts 259°
2026-04-25 19:08 30.11251 -94.77558 42885 ft 353 kts 259°
2026-04-25 19:09 30.08568 -94.87475 42888 ft 354 kts 259°
2026-04-25 19:10 30.06110 -94.96523 42881 ft 353 kts 259°
2026-04-25 19:10 30.04646 -95.01895 42867 ft 349 kts 259°
2026-04-25 19:11 30.03191 -95.07231 42875 ft 347 kts 259°
2026-04-25 19:11 30.02471 -95.09853 42649 ft 341 kts 259°
2026-04-25 19:11 30.01749 -95.12509 41497 ft 350 kts 259°
2026-04-25 19:11 30.01020 -95.15195 40413 ft 349 kts 261°
2026-04-25 19:12 30.00860 -95.17903 39403 ft 335 kts 283°
2026-04-25 19:12 30.01793 -95.20317 38511 ft 333 kts 305°
2026-04-25 19:12 30.03590 -95.21967 37401 ft 346 kts 327°
2026-04-25 19:12 30.06001 -95.22565 36341 ft 370 kts 349°
2026-04-25 19:13 30.08602 -95.21909 35317 ft 400 kts 13°
2026-04-25 19:13 30.10947 -95.20016 34328 ft 427 kts 36°
2026-04-25 19:13 30.12634 -95.17106 33292 ft 448 kts 59°
2026-04-25 19:13 30.13365 -95.13568 32214 ft 462 kts 83°
2026-04-25 19:14 30.13143 -95.09851 31200 ft 466 kts 97°
2026-04-25 19:14 30.12961 -95.08601 30868 ft 466 kts 99°
2026-04-25 19:14 30.10642 -95.03056 29089 ft 465 kts 135°
2026-04-25 19:14 30.08137 -95.00802 27981 ft 452 kts 158°
2026-04-25 19:15 30.05219 -94.99727 26918 ft 432 kts 179°
2026-04-25 19:15 30.02331 -94.99916 25890 ft 401 kts 201°
2026-04-25 19:15 29.99934 -95.01240 24873 ft 370 kts 224°
2026-04-25 19:15 29.98352 -95.03415 23911 ft 345 kts 247°
2026-04-25 19:16 29.97805 -95.06008 22885 ft 329 kts 271°
2026-04-25 19:16 29.98118 -95.08575 21828 ft 320 kts 282°
2026-04-25 19:16 29.98619 -95.11051 20791 ft 314 kts 282°
2026-04-25 19:16 29.99049 -95.13498 19870 ft 308 kts 279°
2026-04-25 19:17 29.99343 -95.15863 19510 ft 291 kts 278°
2026-04-25 19:17 30.00031 -95.18057 19138 ft 301 kts 301°
2026-04-25 19:17 30.01622 -95.19651 18798 ft 313 kts 328°
2026-04-25 19:17 30.03799 -95.20160 18450 ft 332 kts 356°
2026-04-25 19:18 30.06024 -95.19420 18101 ft 348 kts 24°
2026-04-25 19:18 30.07830 -95.17519 17701 ft 359 kts 51°
2026-04-25 19:18 30.08758 -95.14856 17298 ft 362 kts 79°
2026-04-25 19:18 30.08836 -95.11967 16929 ft 359 kts 92°
2026-04-25 19:19 30.08711 -95.09099 16563 ft 356 kts 92°
2026-04-25 19:19 30.08386 -95.06286 16165 ft 355 kts 110°
2026-04-25 19:19 30.07093 -95.03925 15776 ft 346 kts 139°
2026-04-25 19:19 30.06472 -95.03330 15648 ft 342 kts 148°
2026-04-25 19:20 30.02862 -95.02407 15029 ft 315 kts 196°
2026-04-25 19:20 30.00957 -95.03486 14657 ft 302 kts 225°
2026-04-25 19:20 29.99834 -95.05455 14301 ft 294 kts 254°
2026-04-25 19:20 29.99727 -95.07772 13964 ft 290 kts 278°
2026-04-25 19:21 30.00092 -95.10054 13632 ft 289 kts 281°
2026-04-25 19:21 30.00543 -95.14905 12889 ft 319 kts 271°
2026-04-25 19:21 30.00916 -95.17435 12500 ft 324 kts 292°
2026-04-25 19:22 30.02280 -95.19463 12124 ft 326 kts 320°
2026-04-25 19:22 30.04336 -95.20508 11741 ft 332 kts 347°
2026-04-25 19:22 30.08423 -95.18978 10969 ft 310 kts 45°
2026-04-25 19:23 30.09409 -95.16803 10601 ft 309 kts 75°
2026-04-25 19:23 30.08946 -95.11960 9906 ft 304 kts 100°
2026-04-25 19:23 30.08611 -95.09559 9545 ft 302 kts 95°
2026-04-25 19:24 30.08423 -95.07165 9160 ft 298 kts 99°
2026-04-25 19:24 30.07632 -95.04980 8766 ft 296 kts 126°
2026-04-25 19:24 30.04081 -95.03321 7995 ft 284 kts 191°
2026-04-25 19:25 30.01480 -95.06318 7895 ft 281 kts 258°
2026-04-25 19:25 30.01440 -95.08573 7897 ft 285 kts 274°
2026-04-25 19:25 30.01551 -95.10860 7896 ft 285 kts 271°
2026-04-25 19:26 30.01491 -95.13139 7894 ft 285 kts 264°
2026-04-25 19:26 30.01109 -95.15372 7888 ft 283 kts 254°
2026-04-25 19:26 30.00965 -95.17613 7875 ft 285 kts 281°
2026-04-25 19:26 30.01872 -95.19591 7877 ft 288 kts 313°
2026-04-25 19:27 30.03594 -95.20726 7879 ft 289 kts 346°
2026-04-25 19:27 30.04268 -95.20839 7876 ft 290 kts 357°
2026-04-25 19:27 30.05521 -95.20651 7877 ft 289 kts 17°
2026-04-25 19:31 30.07083 -95.19507 7878 ft 290 kts 47°
2026-04-25 19:31 30.07972 -95.17461 7877 ft 288 kts 79°
2026-04-25 19:32 30.07936 -95.15168 7893 ft 287 kts 97°
2026-04-25 19:32 30.07701 -95.12866 7896 ft 289 kts 96°
2026-04-25 19:32 30.07625 -95.10547 7893 ft 290 kts 89°
2026-04-25 19:32 30.07654 -95.09761 7893 ft 289 kts 86°
2026-04-25 19:33 30.08019 -95.05944 7870 ft 290 kts 98°
2026-04-25 19:33 30.07201 -95.03865 7878 ft 286 kts 131°
2026-04-25 19:33 30.05556 -95.02646 7877 ft 284 kts 164°
2026-04-25 19:33 30.03612 -95.02647 7880 ft 283 kts 197°
2026-04-25 19:34 30.01978 -95.03864 7875 ft 284 kts 229°
2026-04-25 19:34 30.01172 -95.05912 7877 ft 285 kts 261°
2026-04-25 19:34 30.01233 -95.08182 7894 ft 284 kts 276°
2026-04-25 19:34 30.01426 -95.10434 7896 ft 285 kts 273°
2026-04-25 19:35 30.01458 -95.12716 7896 ft 284 kts 267°
2026-04-25 19:35 30.00999 -95.14900 7875 ft 284 kts 240°